RYR2KZ EGCC-EKCH

Flight info

Callsign RYR2KZ
Flight time 1h 30m
Altitude 37000
Route DESIG L603 LAMIX UT29 LIBSO UL975 ERDOW DCT ROPAL DCT LESRA DCT TESPI
Aircraft B738/M-SDE2E3FGHIRWXY/LB1

Departure

Time 2026-05-04 11:55
Airport Manchester Airport (EGCC)

Arrival

Time 2026-05-04 13:26
Airport Copenhagen Kastrup Airport (EKCH)
Time Latitude Longitude Altitude Speed Heading
2026-05-04 11:12 53.36085 -2.26794 247 ft 0 kts 315°
2026-05-04 11:39 53.36076 -2.26778 247 ft 3 kts 311°
2026-05-04 11:39 53.36063 -2.26752 247 ft 3 kts 301°
2026-05-04 11:40 53.36057 -2.26684 247 ft 1 kts 231°
2026-05-04 11:44 53.36050 -2.26700 247 ft 4 kts 231°
2026-05-04 11:44 53.36032 -2.26737 247 ft 5 kts 230°
2026-05-04 11:45 53.36007 -2.26787 247 ft 7 kts 231°
2026-05-04 11:45 53.35971 -2.26842 247 ft 7 kts 199°
2026-05-04 11:45 53.35922 -2.26828 251 ft 7 kts 178°
2026-05-04 11:45 53.35883 -2.26875 253 ft 7 kts 231°
2026-05-04 11:46 53.35868 -2.26906 253 ft 0 kts 232°
2026-05-04 11:47 53.35860 -2.26922 253 ft 5 kts 232°
2026-05-04 11:47 53.35838 -2.26977 252 ft 6 kts 238°
2026-05-04 11:47 53.35812 -2.27049 252 ft 8 kts 237°
2026-05-04 11:48 53.35806 -2.27158 247 ft 14 kts 306°
2026-05-04 11:48 53.35804 -2.27289 247 ft 14 kts 230°
2026-05-04 11:48 53.35736 -2.27428 247 ft 16 kts 231°
2026-05-04 11:48 53.35668 -2.27568 246 ft 15 kts 231°
2026-05-04 11:49 53.35597 -2.27693 246 ft 15 kts 223°
2026-05-04 11:49 53.35525 -2.27808 246 ft 14 kts 225°
2026-05-04 11:49 53.35453 -2.27926 244 ft 16 kts 224°
2026-05-04 11:49 53.35361 -2.28073 240 ft 20 kts 224°
2026-05-04 11:50 53.35251 -2.28261 233 ft 24 kts 230°
2026-05-04 11:50 53.35149 -2.28471 229 ft 23 kts 231°
2026-05-04 11:50 53.35053 -2.28671 232 ft 22 kts 231°
2026-05-04 11:50 53.34949 -2.28855 228 ft 21 kts 226°
2026-05-04 11:51 53.34841 -2.29047 217 ft 23 kts 229°
2026-05-04 11:51 53.34757 -2.29216 210 ft 17 kts 231°
2026-05-04 11:51 53.34690 -2.29322 212 ft 9 kts 206°
2026-05-04 11:51 53.34675 -2.29331 206 ft 0 kts 196°
2026-05-04 11:52 53.34665 -2.29336 206 ft 3 kts 195°
2026-05-04 11:52 53.34645 -2.29343 215 ft 3 kts 189°
2026-05-04 11:53 53.34621 -2.29344 210 ft 5 kts 179°
2026-05-04 11:53 53.34570 -2.29320 208 ft 10 kts 151°
2026-05-04 11:53 53.34535 -2.29237 209 ft 9 kts 70°
2026-05-04 11:53 53.34551 -2.29201 212 ft 0 kts 51°
2026-05-04 11:55 53.39333 -2.18969 2714 ft 256 kts 53°
2026-05-04 11:55 53.40440 -2.16487 3234 ft 272 kts 52°
2026-05-04 11:56 53.41634 -2.13923 3790 ft 286 kts 52°
2026-05-04 11:56 53.42850 -2.11339 4614 ft 276 kts 51°
2026-05-04 11:56 53.44016 -2.08850 5246 ft 267 kts 51°
2026-05-04 11:56 53.45236 -2.06483 5471 ft 274 kts 41°
2026-05-04 11:57 53.46782 -2.04497 5171 ft 277 kts 42°
2026-05-04 11:57 53.48020 -2.02159 5381 ft 263 kts 53°
2026-05-04 11:57 53.49107 -1.99668 5346 ft 265 kts 55°
2026-05-04 11:57 53.50123 -1.97121 5361 ft 268 kts 54°
2026-05-04 11:58 53.51211 -1.94562 5371 ft 270 kts 54°
2026-05-04 11:58 53.52270 -1.91960 5354 ft 269 kts 63°
2026-05-04 11:58 53.52792 -1.88967 5359 ft 269 kts 86°
2026-05-04 11:58 53.52470 -1.85891 5415 ft 270 kts 110°
2026-05-04 11:59 53.51821 -1.82895 5964 ft 275 kts 109°
2026-05-04 11:59 53.51196 -1.79861 6803 ft 277 kts 109°
2026-05-04 11:59 53.50591 -1.76767 7564 ft 280 kts 108°
2026-05-04 11:59 53.50003 -1.73633 8298 ft 284 kts 107°
2026-05-04 12:00 53.49432 -1.70493 9037 ft 287 kts 107°
2026-05-04 12:00 53.48855 -1.67260 9780 ft 291 kts 107°
2026-05-04 12:00 53.48271 -1.63975 10414 ft 299 kts 107°
2026-05-04 12:00 53.47653 -1.60500 10592 ft 322 kts 107°
2026-05-04 12:01 53.46997 -1.56817 10997 ft 335 kts 107°
2026-05-04 12:01 53.46322 -1.53046 11633 ft 340 kts 107°
2026-05-04 12:02 53.42104 -1.29635 16030 ft 359 kts 107°
2026-05-04 12:03 53.41373 -1.25602 16761 ft 363 kts 107°
2026-05-04 12:03 53.40637 -1.21544 17497 ft 366 kts 107°
2026-05-04 12:03 53.39890 -1.17440 18207 ft 370 kts 108°
2026-05-04 12:03 53.39134 -1.13299 18848 ft 373 kts 108°
2026-05-04 12:04 53.38369 -1.09127 19479 ft 376 kts 107°
2026-05-04 12:04 53.37600 -1.04934 20155 ft 377 kts 107°
2026-05-04 12:04 53.36826 -1.00722 20793 ft 380 kts 107°
2026-05-04 12:04 53.36051 -0.96508 21276 ft 387 kts 107°
2026-05-04 12:05 53.35253 -0.92185 21899 ft 389 kts 107°
2026-05-04 12:05 53.34454 -0.87863 22590 ft 390 kts 107°
2026-05-04 12:05 53.33650 -0.83521 23229 ft 392 kts 107°
2026-05-04 12:05 53.32839 -0.79156 23791 ft 395 kts 106°
2026-05-04 12:06 53.32020 -0.74761 24283 ft 397 kts 106°
2026-05-04 12:06 53.31485 -0.70237 24750 ft 398 kts 91°
2026-05-04 12:06 53.31709 -0.65624 25271 ft 398 kts 77°
2026-05-04 12:06 53.32592 -0.61319 25791 ft 398 kts 65°
2026-05-04 12:07 53.33791 -0.57144 26305 ft 399 kts 63°
2026-05-04 12:07 53.35016 -0.52972 26765 ft 401 kts 64°
2026-05-04 12:07 53.36238 -0.48762 27225 ft 403 kts 64°
2026-05-04 12:07 53.37445 -0.44522 27691 ft 404 kts 64°
2026-05-04 12:08 53.38640 -0.40255 28154 ft 406 kts 64°
2026-05-04 12:08 53.39837 -0.35958 28606 ft 407 kts 65°
2026-05-04 12:08 53.41038 -0.31651 29036 ft 409 kts 64°
2026-05-04 12:08 53.42252 -0.27331 29449 ft 411 kts 64°
2026-05-04 12:09 53.43456 -0.23049 29862 ft 412 kts 64°
2026-05-04 12:09 53.44680 -0.18689 30258 ft 414 kts 64°
2026-05-04 12:09 53.45906 -0.14313 30589 ft 416 kts 64°
2026-05-04 12:09 53.47134 -0.09917 30881 ft 418 kts 64°
2026-05-04 12:10 53.48368 -0.05488 31161 ft 420 kts 65°
2026-05-04 12:10 53.49608 -0.01031 31460 ft 422 kts 65°
2026-05-04 12:10 53.50852 0.03451 31714 ft 425 kts 65°
2026-05-04 12:10 53.52119 0.07958 31968 ft 427 kts 63°
2026-05-04 12:11 53.53661 0.12206 32368 ft 426 kts 54°
2026-05-04 12:11 53.55417 0.16110 32818 ft 423 kts 53°
2026-05-04 12:11 53.57213 0.20036 33188 ft 423 kts 53°
2026-05-04 12:11 53.59010 0.23959 33517 ft 424 kts 53°
2026-05-04 12:12 53.60805 0.27901 33858 ft 424 kts 53°
2026-05-04 12:12 53.62591 0.31844 34207 ft 423 kts 53°
2026-05-04 12:12 53.64368 0.35793 34467 ft 424 kts 53°
2026-05-04 12:12 53.66149 0.39767 34688 ft 426 kts 53°
2026-05-04 12:13 53.67936 0.43768 34895 ft 428 kts 53°
2026-05-04 12:14 53.80521 0.72165 36474 ft 434 kts 53°
2026-05-04 12:15 53.82326 0.76264 36725 ft 434 kts 53°
2026-05-04 12:15 53.84136 0.80379 36850 ft 437 kts 53°
2026-05-04 12:15 53.85956 0.84526 37017 ft 439 kts 53°
2026-05-04 12:15 53.87778 0.88685 37063 ft 440 kts 53°
2026-05-04 12:16 53.91424 0.97026 37071 ft 440 kts 53°
2026-05-04 12:16 53.95032 1.05307 37075 ft 439 kts 53°
2026-05-04 12:17 53.98660 1.13662 37077 ft 439 kts 53°
2026-05-04 12:17 54.02284 1.22037 37080 ft 440 kts 53°
2026-05-04 12:18 54.05912 1.30447 37072 ft 441 kts 53°
2026-05-04 12:18 54.09518 1.38836 37072 ft 442 kts 53°
2026-05-04 12:19 54.13145 1.47303 37070 ft 443 kts 53°
2026-05-04 12:19 54.16775 1.55803 37068 ft 443 kts 53°
2026-05-04 12:20 54.20378 1.64272 37058 ft 444 kts 53°
2026-05-04 12:20 54.24007 1.72830 37078 ft 445 kts 53°
2026-05-04 12:21 54.27637 1.81419 37070 ft 446 kts 53°
2026-05-04 12:21 54.31266 1.90037 37065 ft 446 kts 53°
2026-05-04 12:22 54.34890 1.98670 37067 ft 446 kts 53°
2026-05-04 12:22 54.38478 2.07250 37067 ft 446 kts 54°
2026-05-04 12:23 54.42083 2.15898 37066 ft 445 kts 54°
2026-05-04 12:23 54.45679 2.24554 37067 ft 445 kts 54°
2026-05-04 12:24 54.49268 2.33225 37078 ft 445 kts 54°
2026-05-04 12:24 54.52823 2.41843 37066 ft 445 kts 54°
2026-05-04 12:25 54.56397 2.50537 37067 ft 444 kts 54°
2026-05-04 12:25 54.59962 2.59241 37062 ft 444 kts 54°
2026-05-04 12:26 54.63518 2.67953 37065 ft 444 kts 54°
2026-05-04 12:26 54.67071 2.76689 37058 ft 444 kts 54°
2026-05-04 12:27 54.70595 2.85381 37063 ft 445 kts 54°
2026-05-04 12:27 54.74139 2.94156 37071 ft 445 kts 54°
2026-05-04 12:28 54.77684 3.02964 37063 ft 446 kts 54°
2026-05-04 12:28 54.81227 3.11799 37066 ft 447 kts 54°
2026-05-04 12:29 54.84745 3.20602 37066 ft 447 kts 54°
2026-05-04 12:29 54.88282 3.29486 37050 ft 448 kts 54°
2026-05-04 12:30 54.91816 3.38392 37068 ft 448 kts 54°
2026-05-04 12:30 54.95348 3.47326 37052 ft 449 kts 54°
2026-05-04 12:31 54.98855 3.56228 37065 ft 449 kts 54°
2026-05-04 12:31 55.02383 3.65218 37060 ft 450 kts 54°
2026-05-04 12:32 55.07667 3.78743 37059 ft 450 kts 54°
2026-05-04 12:33 55.11184 3.87783 37047 ft 450 kts 54°
2026-05-04 12:33 55.14490 3.96984 37031 ft 452 kts 64°
2026-05-04 12:34 55.16924 4.07104 37042 ft 452 kts 67°
2026-05-04 12:34 55.19277 4.17299 37050 ft 452 kts 67°
2026-05-04 12:35 55.21663 4.27487 37049 ft 452 kts 66°
2026-05-04 12:35 55.24052 4.37612 37047 ft 453 kts 66°
2026-05-04 12:36 55.26455 4.47812 37039 ft 453 kts 66°
2026-05-04 12:36 55.28851 4.58040 37045 ft 454 kts 66°
2026-05-04 12:37 55.31241 4.68299 37045 ft 454 kts 67°
2026-05-04 12:37 55.33623 4.78572 37043 ft 454 kts 67°
2026-05-04 12:38 55.35983 4.88793 37043 ft 455 kts 67°
2026-05-04 12:38 55.38340 4.99115 37039 ft 455 kts 69°
2026-05-04 12:39 55.39874 5.09911 37042 ft 456 kts 78°
2026-05-04 12:39 55.41054 5.20869 37040 ft 456 kts 79°
2026-05-04 12:40 55.42241 5.31836 37046 ft 456 kts 78°
2026-05-04 12:40 55.43454 5.42729 37041 ft 457 kts 78°
2026-05-04 12:41 55.44685 5.53698 37045 ft 457 kts 78°
2026-05-04 12:41 55.45912 5.64685 37036 ft 457 kts 78°
2026-05-04 12:42 55.47129 5.75681 37040 ft 457 kts 78°
2026-05-04 12:42 55.48327 5.86615 37036 ft 457 kts 78°
2026-05-04 12:43 55.49523 5.97632 37036 ft 458 kts 78°
2026-05-04 12:43 55.50710 6.08666 37033 ft 458 kts 79°
2026-05-04 12:44 55.51887 6.19705 37028 ft 458 kts 79°
2026-05-04 12:44 55.53055 6.30761 37036 ft 458 kts 79°
2026-05-04 12:45 55.54207 6.41761 37030 ft 459 kts 79°
2026-05-04 12:45 55.55356 6.52836 37031 ft 459 kts 79°
2026-05-04 12:46 55.56497 6.63940 37030 ft 459 kts 79°
2026-05-04 12:46 55.57628 6.75042 37020 ft 460 kts 79°
2026-05-04 12:47 55.58743 6.86101 37030 ft 460 kts 79°
2026-05-04 12:47 55.59857 6.97251 37028 ft 461 kts 79°
2026-05-04 12:48 55.60962 7.08423 37022 ft 462 kts 79°
2026-05-04 12:48 55.62060 7.19626 37019 ft 462 kts 79°
2026-05-04 12:49 55.63147 7.30840 37015 ft 463 kts 80°
2026-05-04 12:49 55.64220 7.42006 37018 ft 463 kts 80°
2026-05-04 12:50 55.65290 7.53265 37015 ft 464 kts 80°
2026-05-04 12:50 55.66351 7.64541 37008 ft 464 kts 80°
2026-05-04 12:51 55.67226 7.73925 37009 ft 465 kts 80°
2026-05-04 12:51 55.68438 7.87060 37007 ft 465 kts 80°
2026-05-04 12:52 55.69471 7.98380 37007 ft 465 kts 81°
2026-05-04 12:52 55.70365 8.08284 37013 ft 466 kts 81°
2026-05-04 12:53 55.70625 8.11181 37006 ft 466 kts 81°
2026-05-04 12:53 55.71801 8.24388 36997 ft 467 kts 81°
2026-05-04 12:54 55.72802 8.35761 36992 ft 467 kts 81°
2026-05-04 12:54 55.73630 8.45260 36595 ft 468 kts 81°
2026-05-04 12:54 55.74120 8.50926 36258 ft 462 kts 81°
2026-05-04 12:55 55.74603 8.56539 35885 ft 457 kts 81°
2026-05-04 12:55 55.75078 8.62092 35508 ft 454 kts 81°
2026-05-04 12:55 55.75547 8.67608 35140 ft 450 kts 81°
2026-05-04 12:55 55.76009 8.73072 34769 ft 446 kts 81°
2026-05-04 12:56 55.76466 8.78509 34406 ft 443 kts 81°
2026-05-04 12:56 55.76917 8.83894 34043 ft 440 kts 81°
2026-05-04 12:56 55.77362 8.89250 33648 ft 437 kts 81°
2026-05-04 12:56 55.77798 8.94513 33258 ft 435 kts 81°
2026-05-04 12:57 55.78233 8.99799 32906 ft 431 kts 81°
2026-05-04 12:57 55.78663 9.05043 32550 ft 427 kts 81°
2026-05-04 12:57 55.79087 9.10251 32181 ft 424 kts 81°
2026-05-04 12:57 55.79505 9.15415 31842 ft 421 kts 81°
2026-05-04 12:58 55.79918 9.20538 31485 ft 418 kts 81°
2026-05-04 12:58 55.80326 9.25632 31152 ft 415 kts 81°
2026-05-04 12:58 55.80730 9.30700 30830 ft 413 kts 81°
2026-05-04 12:58 55.81126 9.35685 30487 ft 413 kts 81°
2026-05-04 12:59 55.81525 9.40744 30113 ft 412 kts 81°
2026-05-04 12:59 55.81920 9.45785 29743 ft 411 kts 81°
2026-05-04 12:59 55.82312 9.50810 29356 ft 410 kts 81°
2026-05-04 12:59 55.82701 9.55822 29007 ft 408 kts 81°
2026-05-04 13:00 55.83086 9.60816 28634 ft 406 kts 81°
2026-05-04 13:00 55.83467 9.65777 28263 ft 404 kts 82°
2026-05-04 13:00 55.83840 9.70655 27921 ft 402 kts 82°
2026-05-04 13:00 55.84212 9.75563 27544 ft 400 kts 82°
2026-05-04 13:01 55.84582 9.80455 27188 ft 397 kts 82°
2026-05-04 13:01 55.84947 9.85311 26834 ft 395 kts 82°
2026-05-04 13:01 55.85308 9.90148 26486 ft 393 kts 82°
2026-05-04 13:01 55.85666 9.94962 26144 ft 391 kts 82°
2026-05-04 13:02 55.86019 9.99745 25791 ft 389 kts 82°
2026-05-04 13:02 55.86370 10.04517 25450 ft 388 kts 82°
2026-05-04 13:02 55.86717 10.09269 25108 ft 386 kts 83°
2026-05-04 13:02 55.87056 10.13937 24784 ft 386 kts 83°
2026-05-04 13:03 55.87399 10.18679 24443 ft 386 kts 83°
2026-05-04 13:03 55.87741 10.23427 24080 ft 387 kts 83°
2026-05-04 13:03 55.88081 10.28183 23719 ft 388 kts 83°
2026-05-04 13:03 55.88420 10.32948 23331 ft 388 kts 83°
2026-05-04 13:04 55.88757 10.37709 22935 ft 387 kts 83°
2026-05-04 13:04 55.89092 10.42454 22575 ft 386 kts 83°
2026-05-04 13:04 55.89423 10.47188 22198 ft 384 kts 83°
2026-05-04 13:04 55.89672 10.51848 21840 ft 382 kts 90°
2026-05-04 13:05 55.89491 10.56540 21490 ft 378 kts 102°
2026-05-04 13:05 55.88956 10.61110 21156 ft 375 kts 105°
2026-05-04 13:05 55.88378 10.65629 20810 ft 374 kts 105°
2026-05-04 13:05 55.87798 10.70146 20469 ft 374 kts 105°
2026-05-04 13:06 55.87229 10.74654 20125 ft 374 kts 105°
2026-05-04 13:06 55.86668 10.79175 19767 ft 374 kts 104°
2026-05-04 13:06 55.86113 10.83696 19402 ft 374 kts 104°
2026-05-04 13:06 55.85558 10.88212 19069 ft 373 kts 104°
2026-05-04 13:07 55.85002 10.92726 18709 ft 373 kts 104°
2026-05-04 13:07 55.84417 10.97139 18454 ft 369 kts 107°
2026-05-04 13:07 55.83772 11.01528 18206 ft 365 kts 107°
2026-05-04 13:07 55.83117 11.05860 17929 ft 361 kts 107°
2026-05-04 13:08 55.82469 11.10148 17655 ft 357 kts 107°
2026-05-04 13:08 55.81831 11.14390 17384 ft 354 kts 107°
2026-05-04 13:08 55.81201 11.18598 17118 ft 350 kts 107°
2026-05-04 13:08 55.80579 11.22765 16850 ft 347 kts 107°
2026-05-04 13:09 55.79962 11.26898 16599 ft 344 kts 107°
2026-05-04 13:09 55.79359 11.30942 16331 ft 342 kts 107°
2026-05-04 13:09 55.78749 11.35019 15998 ft 342 kts 108°
2026-05-04 13:09 55.78134 11.39104 15625 ft 343 kts 108°
2026-05-04 13:10 55.77515 11.43217 15238 ft 346 kts 107°
2026-05-04 13:10 55.77070 11.47411 15017 ft 343 kts 98°
2026-05-04 13:10 55.76842 11.51597 14853 ft 338 kts 96°
2026-05-04 13:10 55.76530 11.55721 14563 ft 337 kts 100°
2026-05-04 13:11 55.76563 11.59870 14227 ft 339 kts 76°
2026-05-04 13:11 55.77287 11.63818 13991 ft 335 kts 70°
2026-05-04 13:11 55.78026 11.67744 13728 ft 334 kts 72°
2026-05-04 13:11 55.78415 11.71800 13420 ft 333 kts 87°
2026-05-04 13:12 55.78516 11.75841 13177 ft 331 kts 89°
2026-05-04 13:12 55.78578 11.79909 12903 ft 329 kts 89°
2026-05-04 13:12 55.78632 11.83966 12639 ft 327 kts 89°
2026-05-04 13:12 55.78681 11.87997 12381 ft 325 kts 89°
2026-05-04 13:13 55.78728 11.92002 12092 ft 324 kts 90°
2026-05-04 13:13 55.78775 11.96000 11820 ft 323 kts 90°
2026-05-04 13:13 55.78822 11.99976 11577 ft 321 kts 90°
2026-05-04 13:13 55.78869 12.03929 11329 ft 319 kts 90°
2026-05-04 13:14 55.78916 12.07869 11079 ft 318 kts 90°
2026-05-04 13:14 55.78960 12.11732 10839 ft 316 kts 90°
2026-05-04 13:14 55.79003 12.15605 10705 ft 311 kts 90°
2026-05-04 13:14 55.79045 12.19426 10499 ft 308 kts 90°
2026-05-04 13:15 55.79087 12.23231 10272 ft 307 kts 90°
2026-05-04 13:15 55.79131 12.27026 10024 ft 307 kts 90°
2026-05-04 13:15 55.79174 12.30805 9801 ft 305 kts 90°
2026-05-04 13:15 55.79216 12.34556 9572 ft 303 kts 90°
2026-05-04 13:16 55.79258 12.38291 9322 ft 302 kts 90°
2026-05-04 13:16 55.79297 12.42016 9089 ft 300 kts 90°
2026-05-04 13:16 55.79331 12.45718 8835 ft 299 kts 90°
2026-05-04 13:16 55.79362 12.49362 8607 ft 299 kts 90°
2026-05-04 13:17 55.79395 12.53096 8215 ft 305 kts 90°
2026-05-04 13:17 55.79426 12.56887 7843 ft 308 kts 90°
2026-05-04 13:17 55.79453 12.60690 7463 ft 307 kts 90°
2026-05-04 13:17 55.79474 12.64471 7081 ft 304 kts 90°
2026-05-04 13:18 55.79488 12.68217 6701 ft 302 kts 90°
2026-05-04 13:18 55.79496 12.71949 6235 ft 303 kts 90°
2026-05-04 13:18 55.79499 12.75705 5748 ft 304 kts 90°
2026-05-04 13:18 55.79496 12.79464 5265 ft 304 kts 90°
2026-05-04 13:19 55.79490 12.83170 4794 ft 304 kts 90°
2026-05-04 13:19 55.79479 12.86976 4295 ft 303 kts 90°
2026-05-04 13:19 55.79451 12.90657 3815 ft 301 kts 93°
2026-05-04 13:19 55.78937 12.94220 3320 ft 298 kts 120°
2026-05-04 13:20 55.77633 12.96922 3054 ft 283 kts 148°
2026-05-04 13:20 55.75901 12.98184 2934 ft 259 kts 178°
2026-05-04 13:20 55.74235 12.97836 2919 ft 229 kts 209°
2026-05-04 13:20 55.73082 12.96176 2923 ft 205 kts 242°
2026-05-04 13:21 55.72554 12.93945 2917 ft 192 kts 254°
2026-05-04 13:21 55.72150 12.91669 2804 ft 196 kts 255°
2026-05-04 13:21 55.71745 12.89377 2602 ft 194 kts 255°
2026-05-04 13:21 55.71351 12.87163 2401 ft 186 kts 255°
2026-05-04 13:22 55.70965 12.85028 2192 ft 178 kts 255°
2026-05-04 13:22 55.70586 12.82991 2027 ft 170 kts 255°
2026-05-04 13:22 55.70222 12.80986 1996 ft 175 kts 255°
2026-05-04 13:22 55.69849 12.78948 1957 ft 175 kts 251°
2026-05-04 13:23 55.69101 12.77249 1813 ft 176 kts 226°
2026-05-04 13:23 55.68243 12.75709 1577 ft 175 kts 230°
2026-05-04 13:23 55.67358 12.74221 1326 ft 175 kts 225°
2026-05-04 13:23 55.66411 12.72912 1134 ft 169 kts 222°
2026-05-04 13:24 55.65545 12.71694 982 ft 148 kts 228°
2026-05-04 13:24 55.64856 12.70519 761 ft 134 kts 230°
2026-05-04 13:24 55.64167 12.69321 519 ft 147 kts 229°
2026-05-04 13:25 55.62719 12.67035 110 ft 136 kts 227°
2026-05-04 13:25 55.62017 12.65958 20 ft 125 kts 228°
2026-05-04 13:25 55.61437 12.65038 20 ft 101 kts 220°
2026-05-04 13:25 55.60958 12.64313 23 ft 70 kts 221°
2026-05-04 13:26 55.60736 12.63965 28 ft 25 kts 225°
2026-05-04 13:26 55.60697 12.63779 25 ft 8 kts 294°
2026-05-04 13:26 55.60730 12.63705 25 ft 8 kts 309°
2026-05-04 13:26 55.60750 12.63662 23 ft 1 kts 309°
2026-05-04 13:27 55.60757 12.63648 26 ft 2 kts 310°
2026-05-04 13:27 55.60771 12.63624 22 ft 4 kts 320°
2026-05-04 13:27 55.60801 12.63601 21 ft 6 kts 349°
2026-05-04 13:27 55.60843 12.63614 20 ft 7 kts 21°
2026-05-04 13:28 55.60885 12.63656 21 ft 7 kts 32°
2026-05-04 13:28 55.60926 12.63703 21 ft 7 kts 33°
2026-05-04 13:28 55.60968 12.63751 20 ft 7 kts 33°
2026-05-04 13:28 55.61017 12.63807 19 ft 10 kts 33°
2026-05-04 13:29 55.61083 12.63883 17 ft 12 kts 33°
2026-05-04 13:29 55.61153 12.63964 17 ft 13 kts 33°
2026-05-04 13:29 55.61233 12.64057 15 ft 15 kts 34°
2026-05-04 13:29 55.61316 12.64155 17 ft 14 kts 33°
2026-05-04 13:30 55.61399 12.64249 17 ft 14 kts 33°
2026-05-04 13:30 55.61480 12.64342 18 ft 14 kts 33°
2026-05-04 13:30 55.61560 12.64434 18 ft 14 kts 32°
2026-05-04 13:30 55.61640 12.64525 18 ft 13 kts 33°
2026-05-04 13:31 55.61719 12.64616 19 ft 14 kts 33°
2026-05-04 13:31 55.61800 12.64710 20 ft 15 kts 33°
2026-05-04 13:31 55.61894 12.64818 16 ft 17 kts 32°
2026-05-04 13:31 55.61979 12.64915 18 ft 12 kts 33°
2026-05-04 13:32 55.62049 12.64995 22 ft 12 kts 34°
2026-05-04 13:32 55.62117 12.65074 24 ft 12 kts 32°
2026-05-04 13:32 55.62187 12.65152 23 ft 13 kts 32°
2026-05-04 13:32 55.62284 12.65197 21 ft 16 kts 358°
2026-05-04 13:33 55.62388 12.65189 20 ft 12 kts 357°
2026-05-04 13:33 55.62438 12.65286 18 ft 13 kts 88°
2026-05-04 13:33 55.62445 12.65413 17 ft 5 kts 57°
2026-05-04 13:33 55.62477 12.65442 17 ft 5 kts 22°
2026-05-04 13:34 55.62505 12.65463 17 ft 2 kts 22°
2026-05-04 13:34 55.62511 12.65467 17 ft 0 kts 22°
2026-05-04 13:36 55.62510 12.65478 18 ft 0 kts